Content
SEND FEEDBACK

Daily
Averages
Monthly
Summary
United States of America

LEXINGTON, NORTH CAROLINA


Home > North America > United States > North Carolina
Elevation: 780 feet     Latitude: 35 51N     Longitude: 080 16W

WEATHER
 
SELECT A DAY
Number of Records: 349,315;   Date Range: 5/10/00 - 11/27/14
 
SHARE

PRINT THIS DATA

[ ← Previous Day ]
WEATHER ALMANAC - JANUARY 31, 2013
[ Next Day → ]
[ °C ]   °F
Weather ElementAverageHighLow
Temperature42.4 °F52.3 °F (12:35 am)32 °F (11:55 pm)
Dewpoint25.8 °F51.6 °F (12:35 am)17.6 °F (5:35 pm)
Humidity53.9 %97 % (12:35 am)33 % (2:35 pm)
Barometer29.83 in30.00 in (7:35 pm)29.48 in (12:55 am)
Wind Speed7.1 mph16.1 mph (1:15 am)
Wind Gust31.1 mph (1:15 am)
Weather ElementAverage
Visibility10 mi
Wind DirectionSW (221.5 °)

Weather ElementTotal
Precipitation---
Heating Degree Days22.9 (Base 65)
Averaged from 68 records on January 31, 2013
WEATHER CONDITIONS BREAKOUT
WIND DIRECTION BREAKOUT
WEATHER BY HOUR - JANUARY 31, 2013
[ °C ]   °F
Local TimeTemperatureDewpointHumidityBarometerVisibilityWind DirectionWind SpeedGust SpeedPrecipitationEventsConditions
12:35 AM52.3 °F51.6 °F97 %29.50 in10.0 miSSW (210°)13.8 mph26.5 mphScattered Clouds
12:55 AM51.6 °F48.2 °F88 %29.48 in10.0 miSW (220°)11.5 mph23.0 mphMostly Cloudy
1:15 AM50.0 °F46.6 °F88 %29.51 in10.0 miSW (220°)16.1 mph31.1 mphRainLight Rain
1:35 AM48.9 °F44.8 °F86 %29.51 in10.0 miSW (230°)15.0 mph26.5 mphScattered Clouds
1:55 AM48.6 °F43.7 °F83 %29.52 in10.0 miSW (220°)11.5 mph27.6 mphScattered Clouds
2:15 AM48.2 °F43.7 °F84 %29.52 in10.0 miSW (220°)10.4 mph21.9 mphScattered Clouds
2:35 AM48.2 °F43.3 °F83 %29.54 in10.0 miSW (230°)9.2 mph19.6 mphMostly Cloudy
2:55 AM47.8 °F43.2 °F84 %29.55 in10.0 miSW (230°)11.5 mph29.9 mphScattered Clouds
3:15 AM47.3 °F42.8 °F84 %29.56 in10.0 miWSW (240°)10.4 mph19.6 mphScattered Clouds
3:35 AM47.3 °F41.0 °F79 %29.58 in10.0 miSW (230°)8.1 mph17.3 mphScattered Clouds
3:55 AM47.3 °F39.2 °F73 %29.59 in10.0 miWSW (250°)10.4 mph20.7 mphClear
4:15 AM46.4 °F34.5 °F63 %29.61 in10.0 miWest (260°)9.2 mph18.4 mphClear
4:35 AM45.7 °F34.2 °F64 %29.62 in10.0 miWSW (240°)8.1 mphClear
4:55 AM45.5 °F32.9 °F61 %29.64 in10.0 miWSW (250°)8.1 mph20.7 mphScattered Clouds
5:15 AM44.6 °F32.0 °F61 %29.66 in10.0 miWest (260°)8.1 mphClear
5:35 AM43.3 °F32.0 °F64 %29.67 in10.0 miWest (270°)6.9 mphClear
5:55 AM42.8 °F29.1 °F58 %29.69 in10.0 miWest (280°)8.1 mphClear
6:15 AM41.7 °F26.6 °F55 %29.71 in10.0 miWest (260°)6.9 mph20.7 mphClear
6:35 AM40.6 °F26.2 °F57 %29.74 in10.0 miWest (270°)6.9 mph18.4 mphScattered Clouds
6:55 AM39.9 °F27.1 °F60 %29.76 in10.0 miWest (280°)6.9 mph16.1 mphScattered Clouds
7:15 AM38.8 °F24.3 °F56 %29.76 in10.0 miWest (270°)8.1 mph17.3 mphClear
7:35 AM38.3 °F24.1 °F57 %29.79 in10.0 miWest (270°)8.1 mphClear
7:55 AM38.5 °F24.6 °F58 %29.81 in10.0 miWest (270°)5.8 mphClear
8:15 AM38.7 °F24.1 °F56 %29.83 in10.0 miWest (270°)5.8 mphClear
8:35 AM39.2 °F23.4 °F53 %29.84 in10.0 miWest (270°)4.6 mphClear
8:55 AM39.7 °F23.9 °F53 %29.86 in10.0 miWest (260°)5.8 mphClear
9:15 AM40.1 °F25.2 °F55 %29.87 in10.0 miWest (270°)5.8 mph19.6 mphClear
9:35 AM40.6 °F24.8 °F53 %29.88 in10.0 miWSW (240°)8.1 mphClear
9:55 AM41.0 °F22.8 °F48 %29.88 in10.0 miWSW (250°)8.1 mphClear
10:15 AM41.4 °F21.9 °F46 %29.88 in10.0 miWSW (240°)10.4 mph20.7 mphClear
10:35 AM41.9 °F22.3 °F46 %29.90 in10.0 miWSW (240°)9.2 mph18.4 mphClear
10:55 AM42.4 °F21.4 °F43 %29.91 in10.0 miWNW (290°)5.8 mphClear
11:15 AM43.7 °F21.9 °F42 %29.90 in10.0 miSSW (210°)9.2 mphClear
11:35 AM43.3 °F21.7 °F42 %29.90 in10.0 miWest (270°)4.6 mph17.3 mphClear
11:55 AM44.6 °F21.9 °F41 %29.90 in10.0 miWest (260°)5.8 mph17.3 mphClear
12:15 PM43.2 °F20.5 °F40 %29.89 in10.0 miWest (280°)8.1 mph17.3 mphClear
12:35 PM44.6 °F20.7 °F39 %29.89 in10.0 miWest (260°)10.4 mph21.9 mphClear
12:55 PM45.1 °F20.8 °F38 %29.88 in10.0 miWSW (240°)6.9 mph19.6 mphClear
1:15 PM47.1 °F21.2 °F36 %29.87 in10.0 miWSW (250°)15.0 mph23.0 mphScattered Clouds
1:35 PM46.2 °F20.1 °F35 %29.88 in10.0 miWSW (250°)12.7 mph23.0 mphClear
1:55 PM45.9 °F19.2 °F35 %29.89 in10.0 miWSW (250°)8.1 mph26.5 mphClear
2:15 PM45.3 °F19.0 °F35 %29.88 in10.0 miWest (270°)9.2 mph21.9 mphClear
2:35 PM46.0 °F18.5 °F33 %29.90 in10.0 miWest (260°)12.7 mph24.2 mphClear
2:55 PM47.3 °F19.8 °F34 %29.90 in10.0 miWest (280°)8.1 mph25.3 mphClear
3:15 PM47.1 °F20.3 °F35 %29.91 in10.0 miWSW (240°)12.7 mph21.9 mphClear
3:35 PM46.2 °F19.6 °F35 %29.92 in10.0 miWest (260°)8.1 mph19.6 mphClear
3:55 PM45.5 °F19.0 °F35 %29.93 in10.0 miWest (270°)5.8 mph19.6 mphClear
4:15 PM45.3 °F19.4 °F36 %29.94 in10.0 miWNW (290°)10.4 mph17.3 mphClear
4:35 PM44.6 °F19.2 °F36 %29.95 in10.0 miWest (280°)6.9 mphClear
4:55 PM44.4 °F19.8 °F37 %29.95 in10.0 miWest (260°)6.9 mphClear
5:15 PM43.3 °F18.9 °F38 %29.95 in10.0 miWest (270°)8.1 mphClear
5:35 PM41.9 °F17.6 °F38 %29.96 in10.0 miWest (260°)4.6 mphClear
5:55 PM41.0 °F17.8 °F39 %29.96 in10.0 miWest (270°)3.5 mphClear
6:15 PM40.3 °F17.6 °F40 %29.97 in10.0 miWest (270°)3.5 mphClear
6:35 PM39.6 °F17.6 °F41 %29.98 in10.0 miWSW (240°)3.5 mphClear
6:55 PM39.0 °F18.1 °F43 %29.98 in10.0 miWSW (250°)3.5 mphClear
7:15 PM38.5 °F18.3 °F44 %29.99 in10.0 miCalmClear
7:35 PM37.8 °F18.3 °F46 %30.00 in10.0 miCalmClear
8:15 PM36.1 °F19.0 °F50 %30.00 in10.0 miCalmClear
8:35 PM35.8 °F18.9 °F50 %29.99 in10.0 miCalmClear
8:55 PM35.6 °F19.2 °F51 %29.99 in10.0 miSSW (210°)4.6 mphClear
9:15 PM35.6 °F19.2 °F51 %29.99 in10.0 miCalmClear
9:35 PM32.9 °F19.4 °F58 %29.99 in10.0 miCalmClear
10:15 PM33.3 °F20.7 °F60 %29.99 in10.0 miCalmClear
10:35 PM32.2 °F20.5 °F62 %30.00 in10.0 miSSW (200°)3.5 mphClear
11:15 PM32.9 °F21.2 °F62 %30.00 in10.0 miCalmClear
11:35 PM32.2 °F21.7 °F65 %29.99 in10.0 miSSW (210°)3.5 mphClear
11:55 PM32.0 °F22.1 °F67 %29.98 in10.0 miSouth (190°)3.5 mphClear
Hourly data recorded from KEXX, located miles away from Lexington, North Carolina







STORIES FROM OUR PARTNERS